Tracking 17145 objects as of 23-May-2015
HD Live streaming from Space Station

METEOSAT 9 (MSG 2)

Track METEOSAT 9 (MSG 2) now!
METEOSAT 9 (MSG 2) is classified as:


NORAD ID: 28912
Int'l Code: 2005-049B
Perigee: 35,787.8 km
Apogee: 35,797.2 km
Inclination: 0.8 °
Period: 1,436.0 minutes
Semi major axis: 42163 km
RCS: 2.0767 m2 (large)
Launch date: December 21, 2005
Source: European Organisation for the Exploitation of Meteorological Satellites (EUME)
Your satellite tracking list
Your tracking list is empty





NASA's NSSDC Master Catalog

Two Line Element Set (TLE):
1 28912U 05049B   15142.82509486  .00000048  00000-0  00000+0 0  9996
2 28912 000.7790 056.1064 0001115 268.8700 221.5056 01.00276334 34552

Source of the keplerian elements: AFSPC

N2YO: 289